Temp
-9 -8 -7 -7 -7 -7 -7 -7 -7 -7 -7 -7 -6 -5 -5 -5 -5 -3 -4 -4 -4 -4 -4 -4 -3 -3 -4 -3 -3 -4 -4 -5 -5 -4 -3 -4 -3 -4 -4 -4 -2 -3 -3 -1
-8 -7 -8 -7 -7 -6 -6 -6 -7 -6 -6 -6 -6 -5 -5 -5 -4 -3 -3 -3 -4 -4 -4 -3 -3 -3 -2 -3 -3 -4 -4 -5 -4 -2 -2 -3 -4 -3 -3 -4 -4 -4 -3 -1
-7 -7 -7 -6 -6 -6 -6 -6 -6 -6 -6 -5 -5 -5 -5 -5 -4 -3 -2 -2 -2 -3 -3 -3 -3 -4 -3 -3 -3 -4 -4 -4 -3 -1 -1 -3 -4 -4 -4 -4 -4 -3 -3 -2
-6 -6 -6 -6 -5 -6 -6 -6 -6 -6 -5 -5 -5 -4 -4 -4 -4 -3 -3 -3 -3 -3 -3 -4 -4 -4 -3 -3 -4 -3 -5 -5 -5 -5 -4 -3 -4 -4 -3 -4 -4 -4 -2 -3
-5 -5 -5 -5 -5 -5 -5 -6 -6 -6 -5 -5 -5 -4 -4 -4 -3 -3 -3 -3 -3 -3 -3 -4 -4 -4 -4 -4 -4 -4 -5 -5 -5 -4 -3 -3 -3 -3 -3 -2 -2 -2 -3 -3
-5 -5 -4 -4 -5 -5 -4 -4 -6 -5 -5 -5 -5 -4 -5 -4 -4 -4 -3 -4 -4 -4 -4 -3 -3 -3 -3 -3 -4 -4 -5 -5 -5 -4 -3 -2 -2 -2 -2 -2 -2 -3 -3 -3
-5 -5 -5 -4 -4 -5 -4 -5 -5 -5 -5 -5 -5 -4 -4 -4 -4 -4 -3 -3 -4 -4 -3 -4 -3 -3 -3 -4 -4 -4 -4 -4 -4 -4 -2 0 -1 -2 -2 -2 -2 -3 -2 -2
-5 -5 -4 -4 -4 -5 -4 -5 -4 -5 -6 -5 -5 -4 -4 -4 -4 -4 -3 -3 -3 -3 -4 -3 -3 -3 -4 -2 -3 -4 -4 -4 -4 -3 -2 -1 -1 -1 -1 -1 -2 -1 -1 -1
-5 -5 -5 -4 -4 -5 -4 -5 -5 -5 -4 -4 -4 -4 -4 -4 -4 -4 -3 -3 -4 -4 -4 -4 -3 -3 -2 -2 -3 -3 -3 -4 -4 -3 -2 -0 1 -0 -0 -1 -1 -0 -1 -1
-5 -6 -5 -4 -4 -4 -5 -4 -5 -5 -5 -4 -4 -4 -4 -4 -4 -4 -4 -3 -4 -4 -4 -4 -4 -3 -2 -1 -1 -3 -3 -3 -3 -3 -3 -2 0 0 0 -0 0 -1 -1 -0
-5 -6 -6 -5 -4 -4 -4 -4 -5 -5 -4 -4 -4 -5 -5 -4 -4 -4 -3 -3 -3 -3 -4 -4 -3 -4 -3 -2 -2 -2 -2 -3 -3 -3 -3 -1 1 0 0 0 0 1 -0 -0
-5 -7 -8 -7 -6 -4 -4 -4 -5 -5 -4 -4 -4 -5 -4 -4 -4 -4 -4 -4 -4 -4 -4 -4 -4 -3 -3 -3 -1 -1 -2 -1 -0 -1 1 0 0 1 1 1 1 2 1 1
-6 -8 -9 -8 -7 -6 -5 -5 -6 -5 -5 -5 -4 -4 -4 -4 -4 -4 -4 -4 -4 -4 -4 -3 -4 -4 -3 -3 -2 -2 -1 -1 -1 -0 0 0 1 1 2 2 2 2 2 2
-7 -8 -10 -10 -9 -7 -6 -5 -6 -6 -5 -5 -4 -4 -4 -4 -3 -3 -4 -4 -4 -4 -4 -4 -4 -4 -4 -3 -3 -2 -2 -1 -1 0 1 0 1 1 2 2 2 2 2 2
-7 -9 -9 -10 -10 -8 -7 -6 -5 -6 -5 -5 -4 -4 -4 -4 -3 -4 -4 -3 -3 -4 -4 -4 -4 -4 -4 -3 -3 -1 -1 0 -1 -0 0 0 1 1 1 2 2 2 2 2
-8 -9 -9 -10 -10 -9 -8 -7 -6 -6 -5 -5 -5 -4 -4 -4 -4 -4 -4 -4 -4 -4 -4 -4 -4 -4 -4 -4 -3 0 0 0 0 0 0 0 1 1 1 1 2 2 2 2
-8 -9 -10 -10 -10 -9 -8 -7 -6 -5 -5 -5 -5 -4 -4 -4 -4 -4 -4 -4 -4 -4 -4 -4 -4 -4 -3 -3 -2 -1 -0 -0 -0 0 0 1 1 1 1 1 1 2 2 2
-9 -10 -10 -10 -10 -9 -8 -7 -5 -5 -5 -5 -5 -5 -4 -4 -4 -4 -4 -4 -4 -4 -4 -4 -4 -4 -4 -3 -0 -0 0 -0 -1 -1 0 0 0 1 1 1 1 1 1 1
-8 -10 -10 -10 -8 -8 -7 -6 -5 -6 -5 -5 -5 -4 -4 -4 -4 -4 -4 -4 -4 -4 -3 -4 -4 -4 -3 -1 -1 -1 -0 -0 -0 -0 0 0 -0 0 0 0 0 1 0 0
-9 -9 -9 -8 -7 -7 -7 -6 -5 -5 -5 -5 -5 -4 -4 -4 -4 -4 -4 -4 -3 -3 -3 -3 -4 -2 -0 -1 -1 -1 -1 -1 -1 -0 -0 -0 -0 0 -0 -0 -1 -1 -1 -1
-8 -8 -7 -7 -6 -6 -6 -6 -5 -5 -6 -5 -4 -4 -4 -4 -4 -4 -4 -4 -4 -3 -3 -3 -3 -0 0 -0 -0 0 -0 0 -0 -1 -1 -0 -1 -1 -1 -1 -1 -2 -2 -2
-8 -7 -7 -6 -6 -6 -5 -6 -5 -6 -5 -6 -5 -4 -4 -4 -5 -4 -4 -4 -4 -3 -3 -3 -2 -0 -0 -0 -0 0 1 1 -0 -1 -1 -1 -1 -1 -1 -1 -2 -2 -1 -2
-8 -7 -7 -6 -6 -6 -5 -5 -6 -6 -6 -5 -5 -5 -5 -5 -5 -5 -4 -4 -4 -3 -3 -2 -1 -1 -0 0 0 0 -1 -2 -0 0 -0 -1 -2 -1 -2 -2 -2 -2 -2 -2
-7 -6 -6 -6 -5 -5 -5 -5 -4 -5 -6 -6 -6 -5 -5 -5 -5 -5 -4 -4 -3 -3 -2 -1 -1 -0 -0 0 0 1 -0 -1 0 0 0 -0 -1 -1 -1 -1 -2 -2 -2 -2
-6 -6 -5 -5 -6 -5 -5 -4 -4 -4 -5 -5 -5 -5 -5 -5 -5 -5 -4 -3 -2 -2 -1 -1 -1 -0 -0 -0 0 1 1 1 1 0 0 -0 -0 -1 -1 -1 -1 -2 -3 -3
-6 -6 -6 -6 -6 -6 -5 -5 -5 -5 -5 -5 -5 -5 -5 -5 -5 -4 -4 -3 -2 -2 -1 -1 -1 -1 -0 -0 -0 0 0 0 0 -0 -0 -0 -0 -0 -0 -1 -1 -2 -3 -3
-6 -6 -6 -6 -6 -6 -6 -5 -5 -5 -5 -5 -6 -6 -5 -5 -5 -5 -4 -3 -2 -2 -2 -2 -1 -1 -1 -1 -0 -0 0 0 0 -0 -1 -1 -1 -1 -1 -1 -2 -2 -3 -3
Height
2969 2963 2959 2955 2949 2943 2943 2940 2940 2944 2947 2952 2957 2961 2961 2965 2970 2973 2976 2981 2983 2987 2993 2997 3002 3005 3006 3007 3011 3013 3017 3018 3017 3015 3016 3017 3020 3018 3021 3020 3011 3006 3002 2963
2969 2964 2960 2956 2951 2948 2948 2945 2945 2948 2952 2957 2961 2963 2966 2969 2974 2977 2979 2982 2986 2989 2994 3000 3002 3004 3003 3006 3009 3013 3014 3014 3014 3010 3014 3014 3014 3013 3013 3007 3004 2995 2996 2958
2970 2967 2963 2960 2957 2955 2954 2951 2952 2952 2957 2961 2966 2968 2970 2973 2977 2980 2982 2985 2988 2991 2995 2997 3001 3001 3003 3006 3008 3009 3012 3011 3010 3009 3009 3012 3009 3005 3003 3000 2993 2984 2970 2957
2972 2968 2966 2964 2962 2959 2958 2954 2956 2959 2961 2965 2968 2971 2974 2977 2981 2983 2985 2988 2990 2994 2996 2997 2999 3001 3002 3004 3006 3008 3010 3007 3008 3005 3002 3001 2998 2994 2990 2988 2982 2977 2955 2959
2975 2971 2970 2968 2966 2965 2965 2963 2964 2965 2967 2971 2974 2977 2978 2982 2983 2986 2988 2990 2992 2993 2996 2998 2998 3000 3002 3004 3004 3006 3006 3005 3004 2997 2995 2994 2990 2985 2981 2977 2971 2964 2958 2947
2977 2972 2971 2971 2970 2971 2969 2968 2967 2968 2969 2974 2978 2980 2982 2983 2985 2986 2988 2990 2992 2993 2994 2996 2997 2998 2999 3001 3002 3003 3004 3003 3003 2993 2991 2987 2982 2980 2975 2971 2967 2960 2952 2945
2978 2973 2972 2972 2971 2971 2970 2967 2970 2971 2974 2975 2980 2980 2983 2983 2985 2987 2988 2990 2992 2993 2993 2995 2996 2996 2997 2997 2998 2999 3001 3001 3002 2993 2989 2983 2981 2977 2973 2969 2963 2959 2950 2943
2979 2974 2971 2972 2972 2972 2972 2970 2971 2971 2974 2977 2980 2981 2983 2984 2986 2987 2988 2990 2991 2991 2994 2995 2995 2995 2995 2993 2992 2995 2998 3000 2999 2996 2991 2982 2978 2976 2972 2967 2963 2956 2951 2945
2977 2974 2970 2970 2971 2971 2972 2971 2972 2973 2975 2977 2978 2981 2982 2984 2987 2988 2989 2989 2990 2991 2993 2994 2995 2994 2993 2993 2992 2993 2994 2996 2998 2995 2993 2985 2978 2975 2970 2966 2965 2959 2955 2950
2976 2971 2968 2967 2968 2968 2969 2970 2971 2972 2973 2974 2976 2979 2982 2984 2986 2987 2987 2988 2988 2990 2992 2994 2994 2994 2993 2992 2991 2990 2992 2992 2992 2993 2993 2982 2978 2975 2971 2969 2970 2962 2958 2955
2974 2967 2964 2962 2964 2966 2967 2968 2969 2971 2972 2974 2975 2977 2980 2982 2985 2987 2987 2989 2987 2988 2990 2992 2992 2991 2991 2989 2989 2989 2990 2990 2989 2990 2989 2983 2977 2975 2974 2971 2966 2964 2962 2960
2972 2964 2960 2958 2958 2960 2963 2966 2968 2970 2971 2972 2973 2976 2978 2980 2982 2985 2985 2987 2987 2988 2989 2990 2989 2989 2989 2989 2988 2986 2988 2987 2986 2986 2982 2979 2977 2973 2971 2968 2965 2964 2963 2962
2968 2961 2956 2954 2953 2954 2958 2962 2966 2968 2969 2971 2973 2975 2977 2979 2981 2982 2984 2985 2985 2985 2987 2987 2987 2987 2987 2987 2985 2984 2983 2983 2982 2981 2979 2977 2975 2972 2970 2968 2965 2964 2964 2964
2964 2957 2953 2950 2948 2949 2952 2957 2963 2966 2968 2970 2973 2974 2976 2978 2979 2980 2981 2982 2983 2983 2984 2984 2984 2985 2984 2982 2981 2980 2981 2979 2979 2978 2977 2976 2973 2971 2970 2968 2967 2965 2965 2965
2959 2953 2948 2946 2943 2944 2948 2953 2959 2963 2969 2969 2971 2972 2974 2976 2977 2977 2978 2979 2980 2980 2981 2981 2980 2980 2980 2977 2976 2972 2974 2975 2976 2977 2975 2974 2972 2971 2970 2968 2968 2967 2966 2967
2953 2947 2943 2940 2937 2939 2944 2949 2955 2961 2965 2969 2969 2971 2971 2973 2974 2974 2975 2976 2976 2977 2976 2976 2975 2976 2976 2972 2968 2966 2969 2971 2972 2972 2972 2972 2971 2970 2969 2969 2968 2968 2967 2967
2946 2939 2934 2932 2932 2935 2942 2947 2951 2959 2965 2968 2969 2969 2969 2970 2970 2971 2972 2972 2972 2973 2972 2971 2971 2971 2970 2966 2960 2965 2966 2967 2967 2968 2969 2969 2968 2968 2968 2967 2968 2968 2968 2968
2940 2933 2928 2926 2929 2934 2942 2946 2952 2960 2964 2967 2968 2968 2968 2968 2968 2969 2969 2969 2969 2969 2968 2966 2965 2965 2964 2959 2958 2958 2959 2960 2961 2963 2963 2965 2966 2966 2966 2966 2967 2968 2968 2968
2937 2931 2929 2929 2932 2938 2944 2949 2955 2960 2966 2965 2967 2967 2968 2967 2967 2967 2969 2968 2967 2966 2964 2962 2962 2960 2956 2956 2955 2954 2955 2955 2956 2957 2959 2960 2962 2963 2964 2964 2966 2967 2967 2968
2938 2935 2933 2935 2939 2944 2949 2954 2958 2961 2963 2963 2964 2965 2967 2968 2967 2968 2968 2966 2965 2963 2963 2960 2956 2949 2950 2951 2951 2951 2952 2952 2953 2954 2956 2957 2959 2961 2962 2962 2963 2963 2967 2968
2941 2939 2938 2940 2944 2949 2952 2955 2958 2960 2961 2961 2962 2963 2965 2966 2967 2967 2967 2965 2963 2962 2962 2959 2955 2950 2950 2949 2947 2946 2947 2949 2950 2951 2951 2952 2955 2957 2959 2960 2960 2964 2965 2966
2944 2943 2944 2946 2949 2951 2953 2954 2957 2957 2958 2958 2958 2959 2961 2963 2965 2966 2966 2964 2962 2960 2959 2958 2953 2952 2949 2947 2944 2941 2940 2944 2948 2948 2948 2950 2952 2954 2955 2956 2958 2963 2965 2966
2946 2947 2948 2949 2950 2950 2949 2950 2951 2953 2953 2953 2955 2957 2958 2960 2963 2964 2964 2962 2961 2959 2957 2954 2953 2951 2948 2946 2944 2944 2943 2944 2947 2947 2948 2949 2950 2951 2952 2955 2958 2962 2964 2966
2947 2948 2948 2947 2946 2945 2945 2946 2948 2950 2951 2952 2954 2956 2958 2959 2961 2962 2961 2960 2958 2956 2954 2953 2952 2950 2948 2945 2945 2946 2946 2946 2947 2948 2949 2950 2951 2953 2954 2956 2958 2961 2963 2965
2946 2946 2945 2943 2943 2943 2943 2944 2946 2948 2950 2951 2953 2956 2958 2958 2960 2960 2959 2957 2953 2951 2951 2951 2950 2950 2948 2947 2946 2945 2945 2946 2947 2949 2950 2950 2951 2952 2954 2955 2957 2959 2962 2963
2941 2941 2940 2941 2941 2942 2944 2944 2945 2947 2948 2951 2953 2955 2956 2957 2957 2956 2955 2953 2949 2949 2949 2949 2949 2949 2948 2948 2946 2946 2945 2944 2944 2945 2947 2948 2949 2950 2951 2953 2955 2957 2959 2962
2937 2937 2937 2938 2939 2940 2941 2942 2944 2945 2946 2948 2950 2950 2950 2951 2951 2949 2949 2948 2948 2947 2947 2947 2947 2947 2946 2946 2945 2945 2944 2943 2942 2942 2942 2944 2946 2947 2948 2950 2952 2955 2957 2959
Wind_Speed
27 22 19 21 28 24 10 13 15 16 12 26 25 13 17 19 20 12 13 10 8 17 22 13 13 12 5 16 14 19 14 5 10 15 10 9 17 18 21 15 12 15 22 38
23 21 18 24 25 18 15 20 15 11 18 16 21 12 19 20 15 10 9 10 9 15 18 8 8 12 13 11 13 12 16 7 4 4 2 13 18 21 29 34 36 35 22 35
21 19 19 22 16 10 13 10 14 15 17 14 16 16 19 19 15 13 10 12 11 12 15 5 11 8 9 12 13 14 11 10 12 10 10 12 20 30 31 33 27 33 46 56
18 18 17 17 18 15 10 16 15 10 13 13 13 14 18 16 8 9 8 7 7 5 5 5 5 8 9 10 12 13 14 15 20 26 29 29 31 30 33 37 45 38 57 48
16 16 15 14 13 12 13 16 13 14 18 17 12 9 8 6 6 5 5 3 3 3 5 4 5 8 9 6 10 12 17 16 14 31 23 17 24 30 30 18 23 30 33 39
14 10 10 9 8 8 9 4 13 14 17 15 10 9 9 8 7 7 7 5 2 4 6 5 7 7 8 9 9 11 18 11 11 10 14 32 9 20 19 16 14 20 26 22
17 9 7 6 8 4 8 6 11 12 11 15 11 12 5 8 9 6 8 4 3 5 4 1 2 7 8 12 16 15 11 10 11 17 19 3 9 16 21 15 14 21 18 18
23 11 7 5 4 3 3 6 9 9 10 7 10 12 9 7 3 8 4 2 3 3 3 2 2 4 5 4 9 16 18 14 9 5 11 20 10 16 22 14 17 18 17 22
30 14 9 6 5 5 3 8 9 9 12 8 13 15 7 10 7 7 8 10 10 8 3 2 1 2 2 3 1 3 9 19 21 8 5 4 7 19 17 8 10 14 14 19
32 23 11 11 9 8 9 8 5 6 8 8 11 13 13 13 9 7 5 4 5 4 7 5 4 4 5 3 3 5 5 8 21 23 9 13 10 20 12 6 9 13 6 10
34 26 14 14 14 13 16 12 13 7 6 9 11 15 13 12 9 6 5 5 4 6 8 5 5 4 3 4 6 4 5 5 7 8 7 6 15 17 10 12 9 6 9 7
35 26 16 12 18 18 21 21 13 10 9 7 12 11 13 14 13 11 8 5 3 6 7 7 5 4 4 4 3 6 7 10 4 7 6 13 17 15 13 12 6 2 2 4
33 24 16 13 17 21 21 23 21 15 11 9 13 12 11 15 12 9 10 7 7 10 8 8 7 6 7 6 8 10 11 12 13 11 5 12 11 11 9 10 3 3 2 1
32 22 14 15 14 20 23 24 23 18 16 9 10 16 15 11 8 10 12 10 9 8 10 11 12 15 12 11 14 15 10 10 7 11 9 10 9 7 5 6 2 2 1 2
31 20 16 16 14 16 21 24 28 21 17 4 11 9 10 12 12 12 8 13 15 13 14 14 17 18 17 18 21 23 20 19 15 7 11 11 10 8 5 3 0 2 5 3
31 22 21 17 14 15 21 22 27 25 19 8 6 10 10 10 9 9 11 12 13 14 18 21 21 20 15 12 15 19 8 12 16 16 15 14 12 8 5 4 3 3 6 6
31 26 21 14 12 17 24 19 26 28 20 11 5 3 6 9 11 10 10 13 12 12 17 20 20 17 15 23 29 17 10 12 14 14 13 12 11 9 8 5 5 4 6 7
31 21 13 4 10 20 20 18 19 21 18 10 2 3 3 4 5 5 7 6 7 13 18 19 17 12 15 23 13 8 14 19 23 24 25 18 13 11 10 10 8 6 7 8
23 12 4 8 17 22 19 18 19 19 16 7 6 4 1 2 1 3 4 6 9 10 14 16 11 15 15 2 4 7 11 12 13 17 20 19 17 13 11 12 11 9 8 11
16 6 9 14 19 25 16 12 18 18 15 10 8 9 5 1 1 1 4 4 4 6 10 11 12 22 8 13 21 16 10 10 12 13 14 17 16 15 14 14 16 12 8 11
9 6 10 20 26 22 9 8 10 10 7 9 14 11 9 7 3 2 3 4 4 4 4 5 6 5 6 12 13 16 25 19 13 13 14 18 16 12 17 17 14 15 7 8
7 8 18 22 17 5 5 9 8 7 7 7 10 14 18 16 6 3 3 5 4 4 5 5 4 6 14 14 11 10 11 21 11 10 10 20 21 18 16 15 16 18 9 12
8 12 10 14 6 5 9 11 9 8 8 10 8 5 8 13 13 5 5 4 5 6 4 4 4 12 14 9 5 1 3 7 7 4 6 12 18 18 12 11 11 15 15 15
7 7 6 8 6 9 9 14 13 11 8 7 7 7 6 6 8 6 4 6 5 4 4 1 7 10 11 7 2 5 3 6 4 6 7 7 8 10 9 11 12 14 15 15
7 7 7 9 7 9 11 13 12 15 10 6 6 10 6 5 5 4 6 5 5 5 2 3 3 6 9 9 7 2 6 11 10 10 10 10 11 13 13 14 16 18 18 17
6 8 7 9 10 8 11 12 12 13 15 13 8 6 5 8 5 6 7 5 5 4 3 3 1 1 3 6 9 8 6 5 9 14 16 16 16 16 17 18 20 21 19 16
5 5 9 10 10 14 15 14 13 12 12 12 9 8 10 7 8 11 11 17 10 7 6 7 8 8 10 11 10 9 9 8 7 9 14 18 18 17 19 21 21 22 21 20
Wind_Direction
357 12 12 359 359 1 8 100 91 116 125 153 159 161 122 135 140 117 112 121 141 166 169 164 174 182 179 181 177 190 199 227 242 248 251 245 230 243 229 231 235 237 259 267
1 12 15 11 17 35 63 77 78 136 131 162 165 131 130 142 139 129 117 122 134 150 164 158 184 185 209 190 180 172 198 226 283 311 321 233 240 243 243 249 253 257 262 264
1 17 12 26 41 45 33 78 94 94 125 127 164 152 132 127 125 129 138 129 123 133 161 138 187 180 194 192 188 203 198 236 234 257 294 300 271 270 266 254 254 264 252 269
359 17 17 27 25 40 22 106 96 105 146 136 143 162 144 137 141 130 124 117 121 139 159 192 185 180 196 200 207 222 221 254 260 271 283 288 284 280 291 274 271 258 278 277
358 14 20 28 34 32 27 112 108 127 141 164 152 150 173 149 167 150 163 137 120 139 146 160 196 192 205 215 238 226 237 259 279 291 298 286 290 290 289 292 294 284 291 291
347 356 24 20 17 38 40 132 114 135 146 164 162 192 180 199 208 207 195 160 90 96 193 225 233 227 224 196 241 244 236 255 299 276 302 316 291 330 341 315 340 308 291 308
345 332 345 356 341 360 26 79 139 145 154 171 181 191 155 156 182 177 190 211 216 234 238 235 243 265 253 243 241 230 245 262 277 287 323 267 338 345 350 346 0 339 327 316
356 323 301 325 289 260 7 111 148 156 151 181 192 179 196 199 205 179 146 232 269 195 216 337 355 305 305 309 238 226 245 248 270 278 306 288 306 349 344 340 3 12 12 29
356 336 279 255 247 241 207 177 160 170 170 188 204 196 217 201 191 224 253 274 281 234 219 283 277 264 304 186 269 232 227 235 238 273 298 295 351 347 346 344 24 4 34 23
350 345 292 239 233 225 207 190 208 192 178 186 194 196 209 201 218 233 277 285 253 238 220 221 247 254 252 274 207 200 192 217 230 248 262 275 295 344 349 1 324 0 42 58
345 341 316 253 224 219 204 200 180 177 195 210 197 200 211 212 214 242 255 288 262 208 200 210 239 254 255 270 245 236 217 206 220 214 230 278 323 331 341 324 319 306 30 99
340 336 323 275 234 215 212 209 188 166 183 207 203 200 200 196 191 217 231 256 243 192 204 217 223 250 266 275 284 249 240 219 233 224 262 295 313 311 316 330 333 206 213 52
336 331 322 296 247 219 214 213 219 193 181 209 187 179 191 193 206 225 249 252 276 249 229 242 266 255 268 259 271 255 268 253 249 278 307 317 334 311 311 336 354 169 201 192
333 324 322 317 273 229 208 209 212 202 205 214 205 206 203 216 230 242 249 239 268 267 252 242 262 278 278 255 245 248 241 249 254 282 302 312 331 323 303 343 35 141 105 158
330 319 312 310 284 233 207 204 204 206 201 229 215 226 221 229 246 247 241 268 255 262 266 259 273 271 283 287 258 254 246 242 250 270 271 295 309 322 300 301 296 139 126 108
328 316 305 297 269 223 199 197 205 205 202 221 195 231 231 226 239 238 241 252 259 254 258 271 270 288 258 260 258 263 233 249 247 246 268 273 284 295 282 268 258 229 174 169
326 317 308 285 242 201 185 193 200 202 202 208 210 242 249 231 242 250 260 264 266 252 259 268 278 279 257 254 257 248 241 239 237 243 233 272 262 273 259 248 240 217 207 200
331 327 321 273 189 175 168 175 178 179 179 197 250 257 277 263 252 264 283 281 274 268 278 279 290 275 246 256 294 264 242 236 233 234 243 261 252 250 248 232 221 206 212 213
343 353 40 124 151 160 144 163 173 183 189 196 219 231 259 351 203 236 258 261 275 286 286 289 276 256 235 213 287 269 252 251 247 245 245 244 231 231 234 221 212 204 212 205
357 46 113 131 145 145 151 159 176 171 194 209 243 219 208 213 49 242 266 285 273 283 293 300 276 286 319 273 259 253 246 235 244 250 254 230 227 226 224 203 195 198 206 219
16 101 137 144 131 130 129 149 163 188 208 237 236 224 217 229 261 262 283 287 273 269 281 277 271 313 344 322 295 260 238 233 245 272 253 219 199 212 212 213 216 188 194 197
56 128 143 143 144 123 150 162 177 189 204 228 230 230 225 227 233 252 276 279 266 253 276 264 265 334 329 329 320 293 247 220 243 268 245 202 203 217 255 234 189 202 209 194
122 137 151 160 183 186 177 181 180 192 207 209 198 191 205 213 217 225 258 254 251 277 245 253 327 332 334 330 342 134 167 168 247 231 182 221 231 246 174 180 196 201 211 203
179 183 187 198 210 205 198 198 206 196 190 200 209 186 158 177 196 211 249 252 265 249 243 10 341 350 5 5 350 163 150 189 272 240 208 221 189 196 209 217 206 216 212 211
200 207 217 226 238 210 190 195 208 209 198 188 169 183 182 195 202 221 239 242 242 237 206 289 337 2 10 19 23 317 239 225 229 245 249 236 234 229 235 232 213 203 209 216
218 224 220 216 201 190 196 197 204 209 222 229 202 193 219 220 217 222 230 242 232 224 246 259 259 317 349 1 4 358 341 281 253 244 241 238 232 228 229 224 216 207 209 214
231 250 235 221 220 217 211 213 222 226 229 230 208 215 205 209 220 214 222 235 249 235 253 260 257 268 289 302 309 321 317 317 296 261 246 240 240 238 227 220 219 210 208 216